x

Burns Harbor, In (bhri3) Weather Station

3:03pm - Mon 26th Jun 2017 All times are CDT. -5 hours from GMT.

  • Wind
    9mph, 9mph gusts
  • Air Temp 66°f
  • Sea Pressure 1017.6mb
  • Burns Harbor, In
  • Burns Harbor, In

More Historic Weather Station data

Upgrade to MSW Pro to gain access to the past 30 days of data for over 8000 Wavebouys and Weather Stations around the globe.

Join Pro

Comparision Forecast

View Surf forecast
   
Mon 06/26 3:03pm 9 9 mph 1017.6mb 66f
2:40pm 6 8 mph 1017.9mb 67f
2:30pm 7 8 mph 1017.9mb 66f
2:20pm 8 10 mph 1017.9mb 65f
2:10pm 8 96 mph 1017.9mb 65f
2:02pm 26
mph
1017.9mb 66f
2:00pm 11 20 mph 1017.9mb 66f
1:40pm 14 23 mph 1018.3mb 67f
1:30pm 11 14 mph 1018.3mb 67f
1:20pm 11 15 mph 1018.3mb 67f
1:10pm 13 15 mph 1018.3mb 67f
1:02pm 10 16 mph 1018.6mb 66f
1:00pm 10 11 mph 1018.6mb 66f
12:40pm 8 13 mph 1019mb 66f
12:30pm 11 16 mph 1019mb 66f
12:20pm 14 16 mph 1019mb 66f
12:10pm 13 18 mph 1019.3mb 66f
12:01pm 16 21 mph 1019.3mb 66f
12:00pm 16 18 mph 1019mb 66f
11:40am 13 16 mph 1019.3mb 66f
11:30am 11 14 mph 1019.3mb 66f
11:20am 11 15 mph 1019.3mb 66f
11:10am 9 14 mph 1019.6mb 66f
11:01am 9 17 mph 1019.6mb 66f
11:00am 9 13 mph 1019.6mb 66f
10:40am 15 17 mph 1019.6mb 66f
10:30am 10 15 mph 1019.6mb 66f
10:20am 14 16 mph 1020mb 65f
10:10am 14 16 mph 1020mb 65f
10:00am 11 16 mph 1020mb 65f
9:40am 13 15 mph 1020mb 64f
9:30am 13 14 mph 1020mb 64f
9:20am 11 14 mph 1020mb 64f
9:10am 11 13 mph 1020mb 63f
9:00am 9 13 mph 1020mb 63f
8:40am 9 11 mph 1020mb 62f
8:30am 9 11 mph 1020mb 62f
8:20am 10 13 mph 1020.3mb 62f
8:10am 10 13 mph 1020.3mb 61f
8:00am 10 17 mph 1020.3mb 61f
7:40am 13 14 mph 1020.3mb 60f
7:30am 13 15 mph 1020.7mb 60f
7:20am 11 15 mph 1020.3mb 60f
7:10am 13 17 mph 1020.3mb 60f
7:00am 14 17 mph 1020.3mb 60f
6:41am 14 17 mph 1020.3mb 60f
6:40am 14 17 mph 1020mb 60f
6:30am 13 15 mph 1020.3mb 59f
6:20am 11 14 mph 1020.3mb 59f
6:10am 11 13 mph 1020.3mb 59f
6:00am 11 13 mph 1020.3mb 59f
5:40am 8 11 mph 1020mb 58f
5:30am 9 11 mph 1020mb 59f
5:20am 9 10 mph 1020mb 58f
5:10am 8 10 mph 1019.6mb 59f
5:00am 8 10 mph 1019.6mb 59f
4:40am 8 13 mph 1019.6mb 59f
4:30am 8 10 mph 1019.6mb 59f
4:20am 8 10 mph 1019.6mb 59f
4:10am 9 11 mph 1019.6mb 59f
4:00am 9 11 mph 1019.6mb 60f
3:40am 9 14 mph 1019.6mb 61f
3:30am 11 14 mph 1019.6mb 61f
3:20am 9 10 mph 1019.6mb 60f
3:10am 7 9 mph 1019.3mb 60f
3:00am 7 9 mph 1019.3mb 61f
2:40am 6 10 mph 1019.3mb 62f
2:30am 10 14 mph 1019.6mb 63f
2:21am 11 18 mph 1019.3mb 63f
2:20am 11 15 mph 1019.3mb 63f
2:10am 14 15 mph 1019.3mb 63f
2:00am 11 15 mph 1019.3mb 63f
1:40am 13 16 mph 1019.3mb 63f
1:30am 14 18 mph 1019.3mb 63f
1:21am 15 28 mph 1019.6mb 63f
1:20am 15 20 mph 1019.3mb 63f
1:10am 15 20 mph 1019.3mb 63f
1:00am 16 21 mph 1019.3mb 63f
12:40am 17 28 mph 1019.3mb 63f
12:30am 16 28 mph 1019.6mb 63f
12:21am 23 28 mph 1019.3mb 64f
12:20am 23 28 mph 1019mb 64f
12:10am 20 23 mph 1019.3mb 64f
12:00am 20 22 mph 1019.3mb 64f
Sun 06/25 11:40pm 21 23 mph 1019.3mb 64f
11:30pm 20 25 mph 1019.3mb 64f
11:20pm 20 24 mph 1019.3mb 64f
11:10pm 18 22 mph 1019.3mb 64f
11:00pm 20 23 mph 1019.3mb 64f
10:40pm 20 24 mph 1019.3mb 65f
10:30pm 20 24 mph 1019.6mb 65f
10:20pm 22 26 mph 1019.6mb 65f
10:10pm 22 25 mph 1019.6mb 65f
10:00pm 22 26 mph 1019.3mb 65f
9:40pm 21 24 mph 1019.3mb 65f
9:30pm 20 23 mph 1019.3mb 66f
9:20pm 20 24 mph 1019.3mb 66f
9:19pm 18 28 mph 1019.3mb 66f
9:10pm 17 23 mph 1019.3mb 66f
9:00pm 20 23 mph 1019mb 66f
8:40pm 23 26 mph 1019mb 67f
8:30pm 22 28 mph 1019mb 67f
8:20pm 21 25 mph 1019mb 67f
8:19pm 21 28 mph 1019mb 67f
8:10pm 22 28 mph 1018.6mb 67f
8:00pm 16 22 mph 1019mb 68f
7:40pm 20 21 mph 1018.6mb 68f
7:30pm 18 22 mph 1019mb 68f
7:20pm 20 22 mph 1018.6mb 68f
7:19pm 20 22 mph 1018.6mb 68f
7:10pm 17 21 mph 1018.6mb 68f
7:00pm 17 20 mph 1018.6mb 68f
6:40pm 17 20 mph 1018.6mb 68f
6:30pm 17 21 mph 1018.6mb 68f
6:20pm 17 22 mph 1018.6mb 68f
6:18pm 18 22 mph 1018.6mb 68f
6:10pm 18 22 mph 1018.6mb 68f
6:00pm 16 18 mph 1018.3mb 68f
5:40pm 13 16 mph 1018.3mb 68f
5:30pm 13 16 mph 1018.3mb 69f
5:20pm 13 15 mph 1018.6mb 68f
5:18pm 13 18 mph 1018.3mb 68f
5:10pm 13 18 mph 1018.6mb 68f
5:00pm 13 17 mph 1018.6mb 68f
4:40pm 14 17 mph 1018.6mb 69f
4:30pm 15 17 mph 1018.6mb 69f
4:20pm 14 18 mph 1018.6mb 68f
4:17pm 15 18 mph 1019mb 68f
4:10pm 16 18 mph 1019mb 69f
4:00pm 10 16 mph 1019mb 68f
3:40pm 11 14 mph 1019.3mb 68f
3:30pm 10 11 mph 1019.3mb 67f
3:20pm 9 16 mph 1019.3mb 68f
3:17pm 10 18 mph 1019.3mb 68f
3:10pm 14 16 mph 1019.3mb 68f
3:00pm 13 16 mph 1019.6mb 67f
2:40pm 14 17 mph 1019.6mb 67f
2:30pm 15 18 mph 1019.6mb 67f
2:20pm 10 13 mph 1019.6mb 67f
2:16pm 9 20 mph 1019.6mb 67f
2:10pm 13 15 mph 1019.6mb 67f
2:00pm 14 17 mph 1019.6mb 67f
1:40pm 16 20 mph 1019.3mb 67f
1:30pm 11 15 mph 1019.6mb 67f
1:20pm 14 16 mph 1020mb 67f
1:16pm 14 18 mph 1020mb 67f
1:10pm 14 16 mph 1019.6mb 66f
1:00pm 15 18 mph 1020mb 66f
12:40pm 16 18 mph 1020mb 66f
12:30pm 15 17 mph 1020mb 66f
12:20pm 14 17 mph 1020mb 66f
12:16pm 16 20 mph 1020mb 66f
12:10pm 15 20 mph 1020mb 66f
12:00pm 15 18 mph 1020mb 66f
11:40am 15 17 mph 1020mb 65f
11:30am 15 18 mph 1020mb 65f
11:20am 14 18 mph 1020mb 65f
11:15am 11 18 mph 1020mb 65f
11:10am 13 17 mph 1020mb 65f
11:00am 15 18 mph 1020mb 65f
10:40am 15 17 mph 1020mb 64f
10:30am 14 17 mph 1020mb 64f
10:20am 14 18 mph 1020mb 64f
10:15am 15 18 mph 1020mb 64f
10:10am 14 17 mph 1020mb 64f
10:00am 13 16 mph 1020mb 63f
9:40am 15 16 mph 1020mb 63f
9:30am 14 17 mph 1020mb 63f
9:20am 14 17 mph 1020mb 63f
9:14am 14 21 mph 1020mb 62f
9:10am 14 18 mph 1020mb 62f
9:00am 16 20 mph 1020mb 62f
8:40am 16 20 mph 1020mb 62f
8:30am 17 21 mph 1020mb 62f
8:20am 17 20 mph 1022.4mb 61f
8:14am 17 21 mph 1019.6mb 61f
8:10am 16 21 mph 1019.6mb 61f
8:00am 16 21 mph 1019.6mb 61f
7:40am 17 21 mph 1019.6mb 61f
7:30am 18 21 mph 1019.6mb 61f
7:20am 17 21 mph 1019.6mb 61f
7:14am 17 22 mph 1019.6mb 60f
7:10am 17 21 mph 1019.3mb 60f
7:00am 16 20 mph 1019.3mb 60f
6:40am 15 21 mph 1019.3mb 61f
6:30am 17 22 mph 1019.3mb 61f
6:20am 14 20 mph 1019mb 61f
6:13am 16 22 mph 1019mb 61f
6:10am 16 20 mph 1019mb 61f
6:00am 17 21 mph 1019mb 61f
5:40am 16 22 mph 1019mb 61f
5:30am 15 21 mph 1018.6mb 61f
5:20am 16 21 mph 1018.6mb 61f
5:13am 16 25 mph 1018.3mb 61f
5:10am 17 22 mph 1018.6mb 61f
5:00am 17 23 mph 1018.3mb 62f
4:40am 17 22 mph 1017.9mb 62f
4:30am 21 23 mph 1017.9mb 62f
4:20am 20 25 mph 1017.9mb 62f
4:12am 20 29 mph 1017.6mb 62f
4:10am 20 25 mph 1017.6mb 62f
4:00am 18 24 mph 1017.6mb 62f
3:40am 22 26 mph 1017.6mb 63f
3:30am 24 26 mph 1017.6mb 63f
3:20am 21 26 mph 1017.6mb 63f
3:12am 21 25 mph 1017.6mb 64f
3:10am 21 25 mph 1017.6mb 64f
3:00am 22 25 mph 1017.6mb 65f
2:40am 11 14 mph 1017.6mb 64f
2:30am 9 13 mph 1017.6mb 64f
2:20am 10 13 mph 1017.6mb 64f
2:12am 10 15 mph 1017.6mb 64f
2:10am 10 13 mph 1017.6mb 64f
2:00am 10 13 mph 1017.6mb 64f
1:40am 13 15 mph 1017.9mb 65f
1:30am 13 15 mph 1017.9mb 65f
1:20am 9 14 mph 1017.9mb 65f
1:11am 9 16 mph 1017.9mb 65f
1:10am 9 13 mph 1017.9mb 65f
1:00am 8 13 mph 1017.9mb 65f
12:40am 14 16 mph 1018.3mb 65f
12:30am 10 14 mph 1018.3mb 65f
12:20am 5 10 mph 1018.3mb 65f
12:11am 9 10 mph 1018.3mb 66f
12:10am 9 10 mph 1018.3mb 66f
12:00am 8 9 mph 1018.3mb 66f
Sat 06/24 11:40pm 5 7 mph 1018.3mb 66f
11:30pm 6 10 mph 1018.3mb 67f
11:20pm 9 10 mph 1018.3mb 67f
11:10pm 9 11 mph 1018.3mb 67f
11:00pm 9 11 mph 1018.3mb 68f
10:40pm 8 9 mph 1018.3mb 68f
10:30pm 8 10 mph 1018.3mb 68f
10:20pm 8 9 mph 1018.3mb 68f
10:10pm 8 13 mph 1018.3mb 68f
10:00pm 8 13 mph 1018.3mb 68f
9:40pm 8 10 mph 1018.3mb 68f
9:30pm 9 10 mph 1018.3mb 68f
9:20pm 8 10 mph 1018.3mb 68f
9:10pm 9 13 mph 1017.9mb 68f
9:00pm 10 16 mph 1017.9mb 68f
8:40pm 15 17 mph 1017.3mb 68f
8:30pm 16 22 mph 1017.3mb 69f
8:20pm 16 18 mph 1017.3mb 69f
8:10pm 16 22 mph 1017.3mb 69f
8:09pm 18 24 mph 1017.3mb 69f
8:00pm 17 22 mph 1016.9mb 69f
7:40pm 17 23 mph 1016.6mb 69f
7:30pm 16 24 mph 1016.6mb 69f
7:20pm 21 24 mph 1016.6mb 69f
7:10pm 20 24 mph 1016.6mb 70f
7:09pm 21 24 mph 1016.6mb 70f
7:00pm 18 22 mph 1016.6mb 70f
6:40pm 17 21 mph 1016.3mb 69f
6:30pm 16 18 mph 1016.3mb 70f
6:20pm 14 18 mph 1016.3mb 70f
6:10pm 17 21 mph 1015.9mb 70f
6:08pm 17 22 mph 1015.9mb 70f
6:00pm 20 22 mph 1015.9mb 70f
5:40pm 17 20 mph 1015.9mb 70f
5:30pm 17 22 mph 1015.6mb 70f
5:20pm 15 20 mph 1015.6mb 70f
5:10pm 16 18 mph 1015.9mb 70f
5:08pm 14 21 mph 1015.9mb 70f
5:00pm 14 18 mph 1015.9mb 70f
4:40pm 14 21 mph 1016.3mb 70f
4:30pm 14 16 mph 1015.9mb 70f
4:20pm 13 17 mph 1015.9mb 70f
4:10pm 15 17 mph 1015.9mb 70f
4:08pm 14 17 mph 1015.9mb 70f
4:00pm 13 15 mph 1015.9mb 69f
3:40pm 11 15 mph 1016.3mb 69f
3:30pm 13 17 mph 1016.3mb 69f
3:20pm 14 15 mph 1016.3mb 69f
3:10pm 14 17 mph 1015.9mb 70f
3:07pm 14 17 mph 1015.9mb 69f
3:00pm 13 15 mph 1015.9mb 69f
2:40pm 13 15 mph 1015.9mb 69f
2:30pm 11 17 mph 1015.9mb 69f
2:20pm 14 17 mph 1015.9mb 69f
2:10pm 14 18 mph 1015.9mb 69f
2:07pm 15 20 mph 1015.6mb 69f
2:00pm 15 17 mph 1015.6mb 69f
1:40pm 13 18 mph 1015.6mb 69f
1:30pm 14 18 mph 1015.6mb 69f
1:20pm 16 20 mph 1015.6mb 69f
1:10pm 16 20 mph 1015.6mb 69f
1:06pm 17 22 mph 1015.6mb 69f
1:00pm 16 22 mph 1015.6mb 69f
12:40pm 13 15 mph 1015.6mb 69f
12:30pm 14 16 mph 1015.6mb 69f
12:20pm 14 17 mph 1015.6mb 69f
12:10pm 11 14 mph 1015.6mb 68f
12:06pm 10 16 mph 1015.6mb 68f
12:00pm 11 16 mph 1015.6mb 68f
11:40am 9 13 mph 1015.6mb 68f
11:30am 9 13 mph 1015.6mb 68f
11:20am 9 13 mph 1015.6mb 68f
11:10am 10 13 mph 1015.2mb 68f
11:06am 8 11 mph 1015.2mb 67f
11:00am 9 11 mph 1015.2mb 67f
10:40am 6 9 mph 1015.2mb 66f
10:30am 8 10 mph 1014.9mb 66f
10:20am 6 8 mph 1014.9mb 66f
10:10am 6 7 mph 1015.2mb 66f
10:05am 6 13 mph 1015.2mb 66f
10:00am 7 8 mph 1015.2mb 66f
9:40am 7 10 mph 1014.9mb 65f
9:30am 9 10 mph 1014.9mb 65f
9:20am 9 13 mph 1014.9mb 65f
9:10am 11 13 mph 1014.9mb 65f
9:05am 11 15 mph 1014.9mb 65f
9:00am 11 14 mph 1014.6mb 65f
8:40am 13 14 mph 1014.6mb 65f
8:30am 10 13 mph 1014.2mb 65f
8:20am 10 13 mph 1014.2mb 65f
8:10am 11 14 mph 1014.2mb 64f
8:04am 11 16 mph 1013.9mb 64f
8:00am 10 14 mph 1013.9mb 64f
7:40am 13 15 mph 1013.9mb 64f
7:30am 11 15 mph 1013.5mb 64f
7:20am 14 16 mph 1013.5mb 64f
7:10am 14 16 mph 1013.5mb 64f
7:04am 15 16 mph 1013.5mb 65f
7:00am 14 16 mph 1013.2mb 65f
6:40am 14 15 mph 1013.2mb 65f
6:30am 13 15 mph 1012.9mb 65f
6:20am 11 14 mph 1012.9mb 65f
6:10am 11 15 mph 1012.9mb 65f
6:04am 11 17 mph 1012.9mb 65f
6:00am 11 15 mph 1012.9mb 65f
5:40am 13 15 mph 1012.9mb 65f
5:30am 13 15 mph 1012.9mb 65f
5:20am 14 17 mph 1012.9mb 65f
5:10am 14 17 mph 1012.9mb 65f
5:03am 14 17 mph 1012.9mb 66f
5:00am 15 17 mph 1012.5mb 66f
4:40am 13 16 mph 1012.5mb 66f
4:30am 14 16 mph 1012.5mb 66f
4:20am 13 16 mph 1012.5mb 66f
4:10am 15 16 mph 1012.2mb 66f
4:03am 13 20 mph 1012.2mb 66f
4:00am 14 16 mph 1012.2mb 66f
3:40am 16 20 mph 1011.9mb 66f
3:30am 15 18 mph 1011.9mb 67f
3:20am 14 17 mph 1011.9mb 67f
3:10am 14 17 mph 1011.9mb 67f
3:02am 15 18 mph 1011.9mb 67f
3:00am 15 17 mph 1011.9mb 67f
2:40am 14 16 mph 1011.9mb 67f
2:30am 13 17 mph 1011.9mb 67f
2:20am 14 17 mph 1011.9mb 67f
2:10am 15 18 mph 1011.5mb 67f
2:02am 14 18 mph 1011.5mb 67f
2:00am 14 18 mph 1011.5mb 67f
1:40am 15 17 mph 1011.5mb 68f
1:30am 13 18 mph 1011.2mb 67f
1:20am 14 18 mph 1011.2mb 68f
1:10am 16 18 mph 1011.2mb 68f
1:02am 15 20 mph 1011.2mb 68f
1:00am 14 17 mph 1011.5mb 68f
12:40am 13 18 mph 1011.2mb 68f
12:30am 15 20 mph 1011.2mb 69f
12:20am 16 20 mph 1011.2mb 69f
12:10am 13 16 mph 1010.8mb 68f
12:01am 13 17 mph 1010.8mb 69f
12:00am 13 15 mph 1010.8mb 69f
Fri 06/23 11:40pm 13 15 mph 1010.8mb 69f
11:30pm 13 17 mph 1010.8mb 69f
11:20pm 14 17 mph 1010.5mb 69f
11:10pm 14 16 mph 1010.2mb 69f
11:01pm 14 16 mph 1010.2mb 69f
11:00pm 14 16 mph 1010.2mb 69f
10:40pm 13 15 mph 1009.8mb 70f
10:30pm 11 14 mph 1009.8mb 69f
10:20pm 9 13 mph 1009.8mb 69f
10:10pm 11 14 mph 1009.5mb 70f
10:00pm 10 15 mph 1009.5mb 70f
9:40pm 11 14 mph 1009.1mb 70f
9:30pm 11 15 mph 1008.8mb 70f
9:20pm 13 15 mph 1008.5mb 71f
9:10pm 13 15 mph 1008.5mb 72f
9:00pm 10 20 mph 1008.1mb 72f
8:40pm 6 7 mph 1007.8mb 75f
8:30pm 5 7 mph 1007.8mb 74f
8:20pm 3 6 mph 1007.5mb 75f
8:10pm 6 7 mph 1007.5mb 75f
8:00pm 5 7 mph 1007.5mb 75f
7:40pm 5 5 mph 1007.1mb 75f
7:30pm 3 5 mph 1006.8mb 74f
7:20pm 2 2 mph 1006.8mb 74f
7:10pm 2 2 mph 1006.8mb 74f
7:00pm  -  2 mph 1007.1mb 74f
6:40pm  -  0 mph 1006.8mb 74f
6:30pm  -  0 mph 1006.8mb 75f
6:20pm  -  2 mph 1006.8mb 78f
6:10pm 2 3 mph 1006.8mb 77f
6:00pm 2 3 mph 1006.8mb 77f
5:40pm 6 6 mph 1006.8mb 75f
5:30pm 6 6 mph 1006.8mb 76f
5:20pm 5 6 mph 1006.8mb 75f
5:10pm 5 6 mph 1006.8mb 74f
5:00pm 6 7 mph 1006.8mb 74f
4:40pm 6 7 mph 1007.1mb 74f
4:30pm 6 7 mph 1007.1mb 74f
4:20pm 7 7 mph 1006.8mb 74f
4:10pm 5 7 mph 1007.1mb 74f
4:02pm 6 7 mph 1007.1mb 74f
4:00pm 6 7 mph 1007.1mb 74f
3:40pm 6 7 mph 1007.1mb 73f
3:30pm 5 6 mph 1007.5mb 73f
3:20pm 6 6 mph 1007.1mb 72f
3:10pm 5 5 mph 1007.1mb 72f
3:02pm  -  3 mph 1007.1mb 73f
3:00pm  -  0 mph 1007.1mb 73f
2:40pm  -  2 mph 1007.1mb 70f
2:30pm  -  2 mph 1007.1mb 70f
2:20pm 1 3 mph 1007.1mb 69f
2:10pm 2 3 mph 1007.1mb 68f
2:01pm 3 5 mph 1007.1mb 68f
2:00pm 3 5 mph 1007.1mb 68f
1:40pm 3 5 mph 1007.1mb 67f
1:30pm 5 5 mph 1007.1mb 67f
1:20pm 2 3 mph 1007.5mb 68f
1:10pm 3 6 mph 1007.5mb 67f
1:01pm 5 11 mph 1007.5mb 67f
1:00pm 5 7 mph 1007.5mb 67f
12:40pm 7 8 mph 1007.1mb 67f
12:30pm 5 9 mph 1007.1mb 67f
12:20pm 7 10 mph 1006.8mb 66f
12:10pm 8 11 mph 1006.8mb 66f
12:00pm 10 18 mph 1006.4mb 66f
11:40am 14 16 mph 1006.4mb 66f
11:30am 13 16 mph 1006.1mb 66f
11:20am 15 18 mph 1005.8mb 66f
11:10am 14 17 mph 1006.1mb 66f
11:00am 14 17 mph 1006.1mb 66f
10:40am 8 10 mph 1005.8mb 66f
10:30am 8 11 mph 1005.4mb 66f
10:20am 6 10 mph 1005.4mb 66f
10:10am 7 8 mph 1005.4mb 66f
10:00am 6 14 mph 1005.8mb 66f
9:40am 7 11 mph 1006.4mb 65f
9:30am 9 11 mph 1006.4mb 65f
9:20am 11 14 mph 1006.8mb 65f
9:10am 7 11 mph 1006.8mb 65f
9:00am 9 13 mph 1006.4mb 66f
8:40am 9 13 mph 1006.4mb 66f
8:30am 9 14 mph 1006.4mb 66f
8:20am 11 15 mph 1006.4mb 66f
8:10am 11 14 mph 1006.1mb 66f
8:00am 10 11 mph 1005.8mb 66f
7:40am 7 8 mph 1005.4mb 66f
7:30am 8 10 mph 1005.4mb 66f
7:20am 3 5 mph 1005.1mb 66f
7:10am 3 7 mph 1005.1mb 66f
7:00am 5 6 mph 1004.7mb 65f
6:40am 3 11 mph 1005.8mb 66f
6:30am 10 21 mph 1005.8mb 66f
6:20am 20 29 mph 1005.8mb 66f
6:19am 20
mph
1006.1mb 66f
6:10am 18 25 mph 1006.4mb 66f
6:00am 26 30 mph 1005.4mb 67f
5:58am 22 29 mph 1005.4mb 67f
5:40am 10 15 mph 1004.7mb 73f
5:30am 11 16 mph 1004.4mb 74f
5:20am 13 15 mph 1004.4mb 74f
5:18am 13 18 mph 1004.4mb 74f
5:10am 13 15 mph 1004.4mb 74f
5:00am 13 18 mph 1004.7mb 74f
4:40am 10 16 mph 1004.7mb 74f
4:30am 11 18 mph 1004.7mb 74f
4:20am 15 17 mph 1004.7mb 74f
4:18am 14 20 mph 1004.7mb 74f
4:10am 11 18 mph 1004.7mb 74f
4:00am 14 18 mph 1004.7mb 74f
3:40am 13 20 mph 1004.7mb 74f
3:30am 14 20 mph 1004.4mb 74f
3:20am 14 20 mph 1004.7mb 74f
3:18am 14 22 mph 1004.7mb 74f
3:10am 13 22 mph 1005.1mb 74f
3:00am 17 21 mph 1005.1mb 74f
2:40am 15 20 mph 1005.1mb 74f
2:30am 15 20 mph 1004.7mb 74f
2:20am 17 23 mph 1005.1mb 74f
2:17am 17 28 mph 1005.1mb 73f
2:10am 18 22 mph 1005.4mb 74f
2:00am 16 25 mph 1005.4mb 73f
1:40am 20 26 mph 1005.4mb 73f
1:30am 21 24 mph 1005.4mb 73f
1:20am 18 23 mph 1005.8mb 73f
1:17am 17 23 mph 1006.1mb 73f
1:10am 20 23 mph 1005.8mb 74f
1:00am 17 22 mph 1006.1mb 74f
12:40am 16 20 mph 1006.8mb 74f
12:30am 14 18 mph 1006.8mb 74f
12:20am 15 17 mph 1007.1mb 74f
12:16am 14 25 mph 1007.1mb 74f
12:10am 15 18 mph 1007.1mb 74f
12:00am 15 20 mph 1007.5mb 74f
Thu 06/22 11:40pm 18 24 mph 1007.8mb 74f
11:30pm 17 23 mph 1007.8mb 74f
11:20pm 21 25 mph 1007.8mb 74f
11:16pm 20 25 mph 1007.8mb 75f
11:10pm 13 21 mph 1008.1mb 75f
11:00pm 18 22 mph 1007.8mb 75f
10:40pm 16 22 mph 1008.1mb 75f
10:30pm 15 22 mph 1008.1mb 76f
10:20pm 16 21 mph 1008.1mb 76f
10:16pm 16 29 mph 1008.1mb 76f
10:10pm 16 26 mph 1008.5mb 76f
10:00pm 20 29 mph 1008.1mb 76f
9:40pm 14 23 mph 1007.8mb 77f
9:30pm 21 26 mph 1007.5mb 77f